Flag for American Samoa Weather past 2 weeks in Pago Pago, American Samoa

Now
85 °F

Broken clouds.


Feels Like: 97 °F
Forecast: 80 / 85 °F
Wind: 9 mph from Southeast

Location: Pago Pago / Int. Airp.

Current Time: May 25, 2015 at 1:48:06 PM

Latest Report: May 25, 2015 at 12:55 PM


Visibility: 12 mi

Pressure: 29.94 "Hg

Humidity: 84%

Dew point: 79 °F

Location of Pago PagoLocation

Historic Weather in Pago Pago — Graph

°F

Pago Pago temperature yesterday

Maximum temperature yesterday: 87 °F (at 12:50 PM)
Minimum temperature yesterday: 75 °F (at 3:55 AM)
Average temperature yesterday: 79 °F

Past Weeks' High & Low Weather Summary

 TemperatureHumidityPressure
High88 °F (May 11, 1:50 PM)100% (May 22, 12:54 PM)30.01 "Hg (May 22, 12:54 PM)
Low75 °F (May 24, 3:55 AM)65% (May 18, 11:52 AM)29.72 "Hg (May 16, 2:50 PM)
Average80 °F86%29.87 "Hg
* Reported May 10 11:53 AM — May 25 11:56 AM, Pago Pago, Weather by CustomWeather, © 2015

Note: Actual official high and low records may vary slightly from our data, if they occured in-between our weather recording intervals... More about our weather records

Advertising

Pago Pago weather history for previous 24 hours

 ConditionsComfort  
Time TempWeatherWind HumidityBarometerVisibility
11:56 AM
Mon, May 25
86 °FBroken clouds.8 mph81%29.96 "Hg12 mi
10:52 AM84 °FPartly sunny.8 mph80%29.98 "Hg12 mi
9:57 AM84 °FBroken clouds.17 mph83%29.98 "Hg12 mi
8:53 AM82 °FBroken clouds.14 mph87%29.98 "Hg12 mi
7:51 AM79 °FBroken clouds.15 mph93%29.96 "Hg12 mi
6:50 AM77 °FLots of rain. Mostly cloudy.2 mph94%29.96 "Hg11 mi
5:51 AM78 °FPartly cloudy.3 mph94%29.93 "Hg10 mi
4:55 AM79 °FSprinkles. Partly cloudy.3 mph93%29.91 "Hg10 mi
3:56 AM79 °FPassing clouds.3 mph92%29.92 "Hg10 mi
2:50 AM77 °FPassing clouds.3 mph94%29.93 "Hg10 mi
1:54 AM80 °FPassing clouds.3 mph87%29.94 "Hg10 mi
12:54 AM79 °FPartly cloudy.2 mph89%29.96 "Hg10 mi
11:50 PM
Sun, May 24
81 °FPartly cloudy.14 mph89%29.96 "Hg10 mi
10:50 PM81 °FPartly cloudy.17 mph87%29.97 "Hg10 mi
9:50 PM80 °FPartly cloudy.17 mph90%29.98 "Hg10 mi
8:53 PM81 °FPartly cloudy.16 mph89%29.98 "Hg10 mi
7:59 PM80 °FPartly cloudy.5 mph91%29.96 "Hg10 mi
6:50 PM80 °FPartly cloudy.13 mph92%29.94 "Hg10 mi
5:58 PM80 °FSprinkles. Broken clouds.15 mph93%29.93 "Hg11 mi
4:50 PM78 °FSprinkles. Cloudy.No wind90%29.93 "Hg10 mi
3:59 PM77 °FRain showers. Mostly cloudy.2 mph94%29.93 "Hg6 mi
2:57 PM80 °FSprinkles. Mostly cloudy.5 mph91%29.93 "Hg7 mi
1:55 PM84 °FBroken clouds.13 mph87%29.93 "Hg12 mi
Weather by CustomWeather, © 2015

See weather overviewHow to use our weather pages